JTE102 YPBO-YBRM

Flight info

Callsign JTE102
Flight time 1h 8m
Altitude 27000
Route ASEBU Y31 KAPNI DCT BRM
Aircraft RJ1H/M-SDFGIRWY/LB1

Departure

Time 2026-05-07 18:01
Airport Paraburdoo Airport (YPBO)

Arrival

Time 2026-05-07 19:09
Airport Broome International Airport (YBRM)
Time Latitude Longitude Altitude Speed Heading
2026-05-07 17:34 -23.17359 117.74719 1406 ft 0 kts 195°
2026-05-07 17:55 -23.17360 117.74719 1411 ft 0 kts 195°
2026-05-07 17:56 -23.17362 117.74718 1410 ft 0 kts 210°
2026-05-07 17:56 -23.17363 117.74717 1409 ft 0 kts 234°
2026-05-07 17:56 -23.17363 117.74715 1409 ft 0 kts 255°
2026-05-07 17:56 -23.17361 117.74711 1408 ft 1 kts 314°
2026-05-07 17:57 -23.17355 117.74711 1409 ft 1 kts 11°
2026-05-07 17:57 -23.17345 117.74716 1405 ft 3 kts 31°
2026-05-07 17:57 -23.17305 117.74733 1412 ft 6 kts
2026-05-07 17:57 -23.17264 117.74718 1410 ft 7 kts 335°
2026-05-07 17:58 -23.17212 117.74692 1410 ft 9 kts 335°
2026-05-07 17:58 -23.17167 117.74645 1411 ft 10 kts 267°
2026-05-07 17:58 -23.17197 117.74563 1407 ft 13 kts 245°
2026-05-07 17:58 -23.17240 117.74464 1409 ft 16 kts 245°
2026-05-07 17:59 -23.17295 117.74335 1402 ft 22 kts 245°
2026-05-07 17:59 -23.17366 117.74168 1403 ft 26 kts 245°
2026-05-07 17:59 -23.17444 117.73987 1400 ft 27 kts 245°
2026-05-07 17:59 -23.17511 117.73830 1398 ft 14 kts 245°
2026-05-07 18:00 -23.17550 117.73772 1406 ft 6 kts 285°
2026-05-07 18:00 -23.17534 117.73778 1407 ft 3 kts 62°
2026-05-07 18:00 -23.17533 117.73780 1406 ft 0 kts 63°
2026-05-07 18:00 -23.17483 117.73896 1404 ft 49 kts 65°
2026-05-07 18:01 -23.17247 117.74447 1410 ft 108 kts 65°
2026-05-07 18:01 -23.16867 117.75331 1544 ft 140 kts 66°
2026-05-07 18:01 -23.16439 117.76314 2062 ft 150 kts 65°
2026-05-07 18:01 -23.15997 117.77327 2743 ft 146 kts 66°
2026-05-07 18:02 -23.15083 117.79289 3871 ft 159 kts 59°
2026-05-07 18:02 -23.14273 117.80220 4142 ft 181 kts 48°
2026-05-07 18:02 -23.13297 117.81217 4477 ft 203 kts 46°
2026-05-07 18:03 -23.12221 117.82311 5090 ft 220 kts 46°
2026-05-07 18:03 -23.11106 117.83487 5493 ft 230 kts 47°
2026-05-07 18:03 -23.09964 117.84786 5690 ft 244 kts 49°
2026-05-07 18:03 -23.08812 117.86199 5910 ft 254 kts 51°
2026-05-07 18:04 -23.07662 117.87672 6293 ft 257 kts 51°
2026-05-07 18:04 -23.06532 117.89185 6646 ft 260 kts 52°
2026-05-07 18:04 -23.05394 117.90746 6964 ft 264 kts 52°
2026-05-07 18:04 -23.04274 117.92301 7425 ft 263 kts 52°
2026-05-07 18:05 -23.03131 117.93888 7777 ft 268 kts 52°
2026-05-07 18:05 -23.01978 117.95490 8253 ft 271 kts 52°
2026-05-07 18:05 -23.00804 117.97125 8605 ft 278 kts 52°
2026-05-07 18:05 -22.99635 117.98762 9102 ft 279 kts 52°
2026-05-07 18:06 -22.98431 118.00436 9537 ft 285 kts 51°
2026-05-07 18:06 -22.97195 118.02130 10055 ft 288 kts 51°
2026-05-07 18:06 -22.95946 118.03847 10513 ft 292 kts 51°
2026-05-07 18:06 -22.94677 118.05593 10980 ft 297 kts 51°
2026-05-07 18:07 -22.93396 118.07374 11447 ft 301 kts 51°
2026-05-07 18:07 -22.92097 118.09180 11903 ft 306 kts 51°
2026-05-07 18:07 -22.90777 118.11014 12365 ft 311 kts 50°
2026-05-07 18:07 -22.89429 118.12867 12840 ft 316 kts 50°
2026-05-07 18:08 -22.88062 118.14761 13277 ft 320 kts 50°
2026-05-07 18:08 -22.86679 118.16666 13767 ft 324 kts 50°
2026-05-07 18:08 -22.85278 118.18602 14223 ft 327 kts 50°
2026-05-07 18:08 -22.83869 118.20541 14699 ft 329 kts 50°
2026-05-07 18:09 -22.82452 118.22492 15192 ft 330 kts 50°
2026-05-07 18:09 -22.81022 118.24450 15621 ft 333 kts 50°
2026-05-07 18:09 -22.79581 118.26423 16092 ft 334 kts 50°
2026-05-07 18:09 -22.78141 118.28413 16472 ft 338 kts 51°
2026-05-07 18:10 -22.76695 118.30417 16969 ft 337 kts 51°
2026-05-07 18:10 -22.75245 118.32425 17331 ft 340 kts 51°
2026-05-07 18:10 -22.73788 118.34441 17791 ft 340 kts 51°
2026-05-07 18:10 -22.72319 118.36461 18115 ft 343 kts 51°
2026-05-07 18:11 -22.70841 118.38490 18524 ft 343 kts 51°
2026-05-07 18:11 -22.69856 118.39837 18676 ft 347 kts 51°
2026-05-07 18:11 -22.67852 118.42583 19040 ft 350 kts 51°
2026-05-07 18:11 -22.66335 118.44670 19260 ft 354 kts 51°
2026-05-07 18:12 -22.64814 118.46765 19517 ft 357 kts 51°
2026-05-07 18:12 -22.63278 118.48889 19794 ft 358 kts 51°
2026-05-07 18:12 -22.61734 118.51011 20006 ft 362 kts 50°
2026-05-07 18:12 -22.60177 118.53123 20280 ft 353 kts 50°
2026-05-07 18:13 -22.58651 118.55195 20596 ft 353 kts 50°
2026-05-07 18:13 -22.57111 118.57286 20739 ft 360 kts 51°
2026-05-07 18:13 -22.55542 118.59448 20797 ft 369 kts 50°
2026-05-07 18:13 -22.53963 118.61604 21035 ft 372 kts 50°
2026-05-07 18:14 -22.52354 118.63800 21284 ft 374 kts 50°
2026-05-07 18:14 -22.50730 118.66013 21530 ft 377 kts 50°
2026-05-07 18:14 -22.49100 118.68243 21772 ft 379 kts 50°
2026-05-07 18:14 -22.47460 118.70485 22024 ft 381 kts 50°
2026-05-07 18:15 -22.45816 118.72743 22262 ft 384 kts 50°
2026-05-07 18:15 -22.44157 118.75019 22500 ft 386 kts 50°
2026-05-07 18:15 -22.42488 118.77310 22705 ft 389 kts 50°
2026-05-07 18:15 -22.40814 118.79611 22939 ft 391 kts 50°
2026-05-07 18:16 -22.39128 118.81929 23166 ft 393 kts 50°
2026-05-07 18:16 -22.37421 118.84241 23387 ft 395 kts 49°
2026-05-07 18:16 -22.35694 118.86569 23610 ft 398 kts 49°
2026-05-07 18:16 -22.33962 118.88906 23815 ft 400 kts 50°
2026-05-07 18:17 -22.32238 118.91278 23972 ft 403 kts 50°
2026-05-07 18:17 -22.30493 118.93660 24140 ft 405 kts 49°
2026-05-07 18:17 -22.28733 118.96050 24294 ft 408 kts 49°
2026-05-07 18:17 -22.26961 118.98455 24455 ft 411 kts 49°
2026-05-07 18:18 -22.25180 119.00876 24614 ft 413 kts 49°
2026-05-07 18:18 -22.23391 119.03313 24770 ft 416 kts 49°
2026-05-07 18:18 -22.21593 119.05765 24947 ft 417 kts 49°
2026-05-07 18:18 -22.19796 119.08224 25130 ft 419 kts 49°
2026-05-07 18:19 -22.17984 119.10696 25300 ft 420 kts 48°
2026-05-07 18:19 -22.16155 119.13159 25440 ft 422 kts 48°
2026-05-07 18:19 -22.14310 119.15642 25600 ft 424 kts 48°
2026-05-07 18:19 -22.12463 119.18129 25772 ft 426 kts 48°
2026-05-07 18:20 -22.10611 119.20630 25945 ft 427 kts 48°
2026-05-07 18:20 -22.08755 119.23141 26126 ft 428 kts 48°
2026-05-07 18:20 -22.06923 119.25627 26287 ft 430 kts 48°
2026-05-07 18:20 -22.05036 119.28189 26440 ft 432 kts 48°
2026-05-07 18:21 -22.03194 119.30698 26604 ft 433 kts 48°
2026-05-07 18:21 -22.01326 119.33248 26770 ft 434 kts 48°
2026-05-07 18:21 -21.99448 119.35803 26927 ft 435 kts 47°
2026-05-07 18:21 -21.97552 119.38350 27090 ft 435 kts 47°
2026-05-07 18:22 -21.95654 119.40896 27157 ft 434 kts 47°
2026-05-07 18:22 -21.94382 119.42601 27172 ft 433 kts 47°
2026-05-07 18:22 -21.91858 119.45981 27188 ft 441 kts 47°
2026-05-07 18:22 -21.89925 119.48570 27200 ft 447 kts 47°
2026-05-07 18:23 -21.87984 119.51210 27205 ft 453 kts 48°
2026-05-07 18:23 -21.86015 119.53885 27203 ft 459 kts 47°
2026-05-07 18:23 -21.84004 119.56577 27194 ft 464 kts 47°
2026-05-07 18:23 -21.81960 119.59299 27207 ft 470 kts 47°
2026-05-07 18:24 -21.79910 119.62063 27207 ft 476 kts 48°
2026-05-07 18:24 -21.77838 119.64868 27207 ft 481 kts 48°
2026-05-07 18:24 -21.75743 119.67698 27197 ft 486 kts 47°
2026-05-07 18:24 -21.73600 119.70541 27198 ft 491 kts 47°
2026-05-07 18:25 -21.71449 119.73414 27196 ft 496 kts 48°
2026-05-07 18:25 -21.69291 119.76324 27195 ft 499 kts 48°
2026-05-07 18:25 -21.67126 119.79248 27189 ft 501 kts 48°
2026-05-07 18:25 -21.64937 119.82164 27189 ft 502 kts 47°
2026-05-07 18:26 -21.62734 119.85079 27190 ft 502 kts 48°
2026-05-07 18:26 -21.60555 119.88000 27188 ft 502 kts 48°
2026-05-07 18:26 -21.58377 119.90929 27186 ft 502 kts 48°
2026-05-07 18:26 -21.56201 119.93860 27181 ft 501 kts 48°
2026-05-07 18:27 -21.54005 119.96768 27172 ft 501 kts 47°
2026-05-07 18:27 -21.51806 119.99672 27173 ft 502 kts 48°
2026-05-07 18:27 -21.49624 120.02596 27174 ft 502 kts 48°
2026-05-07 18:27 -21.48177 120.04539 27174 ft 502 kts 48°
2026-05-07 18:28 -21.45253 120.08445 27173 ft 502 kts 47°
2026-05-07 18:28 -21.43073 120.11311 27173 ft 502 kts 47°
2026-05-07 18:28 -21.40875 120.14228 27172 ft 503 kts 48°
2026-05-07 18:28 -21.38688 120.17157 27148 ft 503 kts 48°
2026-05-07 18:29 -21.36500 120.20090 27157 ft 504 kts 48°
2026-05-07 18:29 -21.34284 120.23013 27163 ft 505 kts 47°
2026-05-07 18:29 -21.32068 120.25927 27159 ft 505 kts 47°
2026-05-07 18:29 -21.29862 120.28867 27169 ft 505 kts 48°
2026-05-07 18:30 -21.27666 120.31806 27168 ft 505 kts 48°
2026-05-07 18:30 -21.25450 120.34730 27161 ft 505 kts 47°
2026-05-07 18:30 -21.23230 120.37644 27157 ft 505 kts 47°
2026-05-07 18:30 -21.21025 120.40573 27151 ft 505 kts 48°
2026-05-07 18:31 -21.18826 120.43513 27159 ft 506 kts 48°
2026-05-07 18:31 -21.16615 120.46443 27153 ft 505 kts 47°
2026-05-07 18:31 -21.14389 120.49358 27154 ft 505 kts 47°
2026-05-07 18:31 -21.12169 120.52277 27157 ft 505 kts 48°
2026-05-07 18:32 -21.09970 120.55209 27160 ft 505 kts 48°
2026-05-07 18:32 -21.07761 120.58137 27153 ft 505 kts 47°
2026-05-07 18:32 -21.06287 120.60067 27155 ft 505 kts 47°
2026-05-07 18:32 -21.04063 120.62973 27157 ft 505 kts 47°
2026-05-07 18:33 -21.01846 120.65897 27146 ft 506 kts 48°
2026-05-07 18:33 -20.99640 120.68832 27152 ft 505 kts 47°
2026-05-07 18:33 -20.97422 120.71748 27154 ft 505 kts 47°
2026-05-07 18:33 -20.95199 120.74663 27154 ft 505 kts 47°
2026-05-07 18:34 -20.92974 120.77573 27153 ft 505 kts 47°
2026-05-07 18:34 -20.90749 120.80484 27153 ft 506 kts 47°
2026-05-07 18:34 -20.88526 120.83393 27154 ft 506 kts 47°
2026-05-07 18:34 -20.86321 120.86327 27153 ft 506 kts 48°
2026-05-07 18:35 -20.84110 120.89248 27153 ft 506 kts 47°
2026-05-07 18:35 -20.81890 120.92161 27153 ft 506 kts 47°
2026-05-07 18:35 -20.79664 120.95075 27153 ft 506 kts 47°
2026-05-07 18:35 -20.77439 120.97984 27153 ft 506 kts 47°
2026-05-07 18:36 -20.75209 121.00891 27152 ft 506 kts 47°
2026-05-07 18:36 -20.72981 121.03798 27151 ft 506 kts 47°
2026-05-07 18:36 -20.70749 121.06706 27152 ft 506 kts 47°
2026-05-07 18:36 -20.68525 121.09610 27154 ft 506 kts 48°
2026-05-07 18:37 -20.66319 121.12537 27154 ft 506 kts 48°
2026-05-07 18:37 -20.64111 121.15432 27142 ft 500 kts 47°
2026-05-07 18:37 -20.61912 121.18307 27123 ft 500 kts 47°
2026-05-07 18:37 -20.59714 121.21179 27133 ft 500 kts 47°
2026-05-07 18:38 -20.57544 121.24019 27139 ft 500 kts 47°
2026-05-07 18:38 -20.55342 121.26896 27146 ft 501 kts 47°
2026-05-07 18:38 -20.53137 121.29777 27144 ft 502 kts 47°
2026-05-07 18:38 -20.50923 121.32666 27148 ft 502 kts 47°
2026-05-07 18:39 -20.48717 121.35547 27147 ft 502 kts 47°
2026-05-07 18:39 -20.46506 121.38433 27139 ft 502 kts 47°
2026-05-07 18:39 -20.44295 121.41317 27140 ft 503 kts 47°
2026-05-07 18:39 -20.42085 121.44201 27139 ft 503 kts 47°
2026-05-07 18:40 -20.39851 121.47076 27142 ft 503 kts 47°
2026-05-07 18:40 -20.37621 121.49949 27142 ft 503 kts 47°
2026-05-07 18:40 -20.35404 121.52831 27139 ft 503 kts 47°
2026-05-07 18:40 -20.33186 121.55720 27143 ft 504 kts 47°
2026-05-07 18:41 -20.30969 121.58611 27137 ft 504 kts 47°
2026-05-07 18:41 -20.28753 121.61498 27140 ft 504 kts 47°
2026-05-07 18:41 -20.26522 121.64372 27140 ft 503 kts 47°
2026-05-07 18:41 -20.24279 121.67242 27110 ft 504 kts 47°
2026-05-07 18:42 -20.22059 121.70125 27124 ft 504 kts 47°
2026-05-07 18:42 -20.19845 121.73011 27125 ft 504 kts 47°
2026-05-07 18:42 -20.17602 121.75797 27128 ft 500 kts 39°
2026-05-07 18:42 -20.14931 121.78103 27141 ft 492 kts 30°
2026-05-07 18:43 -20.12130 121.80198 27145 ft 492 kts 28°
2026-05-07 18:43 -20.09310 121.82269 27140 ft 493 kts 29°
2026-05-07 18:43 -20.06485 121.84325 27136 ft 490 kts 25°
2026-05-07 18:43 -20.03520 121.86062 27136 ft 484 kts 18°
2026-05-07 18:44 -20.00455 121.87507 27132 ft 480 kts 15°
2026-05-07 18:44 -19.97354 121.88816 27132 ft 479 kts 13°
2026-05-07 18:44 -19.94244 121.90097 27131 ft 479 kts 14°
2026-05-07 18:44 -19.91139 121.91392 27129 ft 480 kts 14°
2026-05-07 18:45 -19.88040 121.92710 27114 ft 480 kts 14°
2026-05-07 18:45 -19.84946 121.94048 27118 ft 480 kts 15°
2026-05-07 18:45 -19.81858 121.95414 27120 ft 480 kts 15°
2026-05-07 18:45 -19.78775 121.96782 27126 ft 480 kts 15°
2026-05-07 18:46 -19.75688 121.98125 27117 ft 480 kts 14°
2026-05-07 18:46 -19.72596 121.99458 27121 ft 480 kts 14°
2026-05-07 18:46 -19.69502 122.00792 27122 ft 480 kts 15°
2026-05-07 18:46 -19.66408 122.02158 27121 ft 481 kts 15°
2026-05-07 18:47 -19.63323 122.03512 27118 ft 480 kts 15°
2026-05-07 18:47 -19.60232 122.04845 27114 ft 479 kts 14°
2026-05-07 18:47 -19.57150 122.06172 27096 ft 477 kts 15°
2026-05-07 18:47 -19.54081 122.07520 27108 ft 477 kts 15°
2026-05-07 18:48 -19.51011 122.08867 27106 ft 477 kts 15°
2026-05-07 18:48 -19.47937 122.10188 27109 ft 477 kts 14°
2026-05-07 18:48 -19.44859 122.11513 27111 ft 478 kts 15°
2026-05-07 18:48 -19.41784 122.12867 27113 ft 478 kts 15°
2026-05-07 18:49 -19.38707 122.14210 27110 ft 478 kts 15°
2026-05-07 18:49 -19.35624 122.15532 27110 ft 478 kts 14°
2026-05-07 18:49 -19.32543 122.16855 27109 ft 478 kts 15°
2026-05-07 18:49 -19.29508 122.18186 27109 ft 479 kts 15°
2026-05-07 18:50 -19.26390 122.19551 27092 ft 478 kts 15°
2026-05-07 18:50 -19.23354 122.20852 27098 ft 477 kts 14°
2026-05-07 18:50 -19.20277 122.22174 27101 ft 477 kts 15°
2026-05-07 18:50 -19.17210 122.23520 27102 ft 478 kts 15°
2026-05-07 18:51 -19.14132 122.24855 27099 ft 477 kts 15°
2026-05-07 18:51 -19.11060 122.26169 27100 ft 477 kts 14°
2026-05-07 18:51 -19.07980 122.27490 27100 ft 478 kts 15°
2026-05-07 18:51 -19.04905 122.28838 27101 ft 479 kts 15°
2026-05-07 18:52 -19.01826 122.30175 27098 ft 478 kts 15°
2026-05-07 18:52 -18.98722 122.31396 27094 ft 470 kts
2026-05-07 18:52 -18.95561 122.31740 27016 ft 451 kts 349°
2026-05-07 18:52 -18.92420 122.31507 26424 ft 453 kts 347°
2026-05-07 18:53 -18.89305 122.31161 25842 ft 446 kts 342°
2026-05-07 18:53 -18.86303 122.30461 25279 ft 439 kts 336°
2026-05-07 18:53 -18.83389 122.29512 24727 ft 438 kts 334°
2026-05-07 18:53 -18.80517 122.28484 24195 ft 430 kts 333°
2026-05-07 18:54 -18.77694 122.27433 23643 ft 428 kts 333°
2026-05-07 18:54 -18.74902 122.26398 22987 ft 423 kts 334°
2026-05-07 18:54 -18.72146 122.25401 22342 ft 415 kts 334°
2026-05-07 18:54 -18.69425 122.24444 21695 ft 408 kts 335°
2026-05-07 18:55 -18.66746 122.23515 21074 ft 402 kts 335°
2026-05-07 18:55 -18.64114 122.22605 20472 ft 392 kts 335°
2026-05-07 18:55 -18.61598 122.21738 19879 ft 377 kts 335°
2026-05-07 18:55 -18.59117 122.20873 19294 ft 375 kts 335°
2026-05-07 18:56 -18.56651 122.20007 18712 ft 373 kts 336°
2026-05-07 18:56 -18.54195 122.19158 18129 ft 370 kts 336°
2026-05-07 18:56 -18.51764 122.18310 17484 ft 366 kts 336°
2026-05-07 18:56 -18.49384 122.17478 16850 ft 358 kts 336°
2026-05-07 18:57 -18.47019 122.16664 16220 ft 358 kts 337°
2026-05-07 18:57 -18.44656 122.15853 15609 ft 357 kts 337°
2026-05-07 18:57 -18.42324 122.15044 15022 ft 357 kts 338°
2026-05-07 18:57 -18.39953 122.14218 14430 ft 350 kts 338°
2026-05-07 18:58 -18.37662 122.13435 13856 ft 351 kts 338°
2026-05-07 18:58 -18.35340 122.12638 13204 ft 352 kts 338°
2026-05-07 18:58 -18.33020 122.11835 12577 ft 348 kts 338°
2026-05-07 18:58 -18.30748 122.11047 11958 ft 344 kts 339°
2026-05-07 18:59 -18.28480 122.10259 11354 ft 342 kts 339°
2026-05-07 18:59 -18.26227 122.09486 10741 ft 339 kts 339°
2026-05-07 18:59 -18.24019 122.08717 10168 ft 323 kts 339°
2026-05-07 18:59 -18.21968 122.08009 9534 ft 300 kts 340°
2026-05-07 19:00 -18.19999 122.07329 8913 ft 300 kts 340°
2026-05-07 19:00 -18.18011 122.06632 8382 ft 302 kts 341°
2026-05-07 19:00 -18.16016 122.05938 7860 ft 302 kts 341°
2026-05-07 19:00 -18.14023 122.05244 7349 ft 301 kts 342°
2026-05-07 19:01 -18.12056 122.04571 6908 ft 291 kts 342°
2026-05-07 19:01 -18.10199 122.03927 6496 ft 270 kts 343°
2026-05-07 19:01 -18.08493 122.03335 6065 ft 251 kts 343°
2026-05-07 19:01 -18.06833 122.02755 5620 ft 257 kts 345°
2026-05-07 19:02 -18.05114 122.02145 5276 ft 263 kts 346°
2026-05-07 19:02 -18.03399 122.01544 4940 ft 253 kts 346°
2026-05-07 19:02 -18.01735 122.00984 4637 ft 254 kts 348°
2026-05-07 19:02 -18.00051 122.00416 4340 ft 248 kts 349°
2026-05-07 19:03 -17.98466 121.99866 4027 ft 232 kts 350°
2026-05-07 19:03 -17.96938 121.99741 3704 ft 212 kts 24°
2026-05-07 19:03 -17.95622 122.00367 3418 ft 210 kts 36°
2026-05-07 19:03 -17.94377 122.01147 3194 ft 204 kts 39°
2026-05-07 19:04 -17.93243 122.01944 3118 ft 191 kts 42°
2026-05-07 19:04 -17.92170 122.02748 3082 ft 189 kts 44°
2026-05-07 19:04 -17.91132 122.03565 3062 ft 190 kts 47°
2026-05-07 19:04 -17.90516 122.04687 3031 ft 176 kts 88°
2026-05-07 19:05 -17.90572 122.05940 3012 ft 164 kts 94°
2026-05-07 19:05 -17.90705 122.07084 2968 ft 156 kts 98°
2026-05-07 19:05 -17.90927 122.08279 2791 ft 168 kts 101°
2026-05-07 19:05 -17.91183 122.09424 2625 ft 156 kts 103°
2026-05-07 19:06 -17.91483 122.10485 2402 ft 149 kts 106°
2026-05-07 19:06 -17.92101 122.12401 1839 ft 128 kts 106°
2026-05-07 19:06 -17.92358 122.13236 1647 ft 114 kts 104°
2026-05-07 19:07 -17.92565 122.14026 1413 ft 113 kts 104°
2026-05-07 19:07 -17.92763 122.14822 1291 ft 112 kts 105°
2026-05-07 19:07 -17.92986 122.15618 1170 ft 115 kts 105°
2026-05-07 19:07 -17.93213 122.16423 1071 ft 116 kts 107°
2026-05-07 19:08 -17.93431 122.17255 926 ft 119 kts 103°
2026-05-07 19:08 -17.93650 122.18117 775 ft 126 kts 106°
2026-05-07 19:08 -17.93889 122.19018 631 ft 132 kts 106°
2026-05-07 19:08 -17.94143 122.19944 478 ft 130 kts 106°
2026-05-07 19:09 -17.94367 122.20839 271 ft 125 kts 107°
2026-05-07 19:09 -17.94608 122.21729 93 ft 128 kts 105°
2026-05-07 19:09 -17.94824 122.22543 56 ft 96 kts 106°
2026-05-07 19:09 -17.94953 122.23031 42 ft 43 kts 105°
2026-05-07 19:10 -17.95011 122.23248 38 ft 24 kts 105°
2026-05-07 19:10 -17.95044 122.23365 35 ft 12 kts 117°
2026-05-07 19:10 -17.95112 122.23380 36 ft 9 kts 196°
2026-05-07 19:10 -17.95163 122.23362 37 ft 6 kts 214°
2026-05-07 19:11 -17.95186 122.23329 37 ft 5 kts 245°
2026-05-07 19:11 -17.95205 122.23304 37 ft 4 kts 207°
2026-05-07 19:11 -17.95229 122.23295 37 ft 4 kts 195°
2026-05-07 19:11 -17.95252 122.23289 37 ft 3 kts 195°
2026-05-07 19:12 -17.95272 122.23287 37 ft 2 kts 145°
2026-05-07 19:12 -17.95277 122.23301 37 ft 2 kts 79°
2026-05-07 19:12 -17.95269 122.23319 37 ft 3 kts 62°
2026-05-07 19:12 -17.95262 122.23331 37 ft 0 kts 61°